Location: Lecco
(45.8566°N, 9.3977°E)
Time: 08:04:47
(UTC+02:00)

Altair - Pass Details

Date: 22 August 2020
Orbit: 1501 x 1682 km, 47.2° (Epoch: 25 September)

Event Time Altitude Azimuth Distance (km) Brightness Sun altitude
Rises 04:08:05 0° 275° (W) 4,825 - -21.8°
Exits shadow 04:10:48 - 276° (W) 3,954 9.3 -21.5°
Reaches altitude 10° 04:11:14 10° 277° (W) 3,815 9.2 -21.5°
Maximum altitude 04:20:57 84° 6° (N) 1,566 7.5 -20.3°
Drops below altitude 10° 04:30:17 10° 95° (E) 3,681 10.1 -19.1°
Sets 04:33:17 0° 97° (E) 4,649 10.7 -18.7°
